Date,TemperatureHighF,TemperatureAvgF,TemperatureLowF,DewpointHighF,DewpointAvgF,DewpointLowF,HumidityHigh,HumidityAvg,HumidityLow,PressureMaxIn,PressureMinIn,WindSpeedMaxMPH,WindSpeedAvgMPH,GustSpeedMaxMPH,PrecipitationSumIn
2013-1-1,80,65,52,66,58,51,99,82,51,30.19,29.95,17,3,17,0.00
2013-1-2,83,69,58,68,63,58,99,84,52,30.08,29.84,14,3,14,0.00
2013-1-3,83,66,59,69,63,59,99,91,59,30.08,29.91,9,2,9,0.00
2013-1-4,65,63,60,64,62,60,99,97,94,30.19,30.06,10,3,10,0.01
2013-1-5,78,67,59,68,63,57,99,87,59,30.27,30.07,12,3,12,1.09
2013-1-6,83,70,61,72,67,61,99,92,66,30.14,29.96,15,2,15,0.90
2013-1-7,74,68,62,67,64,61,99,87,67,30.15,30.00,16,5,16,0.01
2013-1-8,81,72,65,74,69,65,99,90,68,30.14,30.00,13,3,13,0.75
2013-1-9,80,73,68,74,70,67,99,92,75,30.18,30.01,18,6,18,0.01
2013-1-10,80,73,64,73,68,63,99,86,64,30.19,29.99,20,5,20,0.00
2013-1-11,80,71,63,74,66,62,99,88,62,30.14,30.00,16,4,16,0.00
2013-1-12,82,71,61,76,66,60,99,86,62,30.08,29.91,14,3,14,0.09
2013-1-13,82,70,61,70,65,61,99,83,54,30.01,29.92,14,4,14,0.01
2013-1-14,80,69,60,69,65,60,99,87,66,30.07,29.95,14,3,14,0.00
2013-1-15,81,70,63,71,66,62,99,88,64,30.02,29.91,15,3,15,0.00
2013-1-16,86,71,61,73,65,60,99,82,48,29.97,29.84,17,4,17,0.01
2013-1-17,83,68,55,71,62,48,97,82,52,29.96,29.78,23,9,23,0.00
2013-1-18,73,59,44,61,51,39,95,75,53,30.23,29.96,21,8,21,0.14
2013-1-19,75,68,64,66,64,59,99,84,71,30.16,29.98,17,6,17,0.25
2013-1-20,78,64,60,69,62,60,99,94,71,30.06,29.92,10,2,10,0.02
2013-1-21,82,67,61,70,63,59,99,89,62,29.97,26.88,8,2,8,0.09
2013-1-22,72,61,50,60,51,45,96,73,45,30.18,29.91,18,4,18,0.01
2013-1-23,74,58,48,52,46,38,99,67,42,30.36,30.12,11,3,11,0.00
2013-1-24,78,59,43,53,49,43,99,74,36,30.33,30.10,13,2,13,0.00
2013-1-25,81,62,50,61,54,50,99,79,39,30.28,30.03,11,2,11,0.00
2013-1-26,82,63,48,59,54,48,99,76,31,30.22,29.95,14,2,14,0.00
2013-1-27,80,66,53,67,59,52,99,81,49,30.24,30.04,14,3,14,0.19
2013-1-28,76,70,68,69,66,64,99,87,73,30.15,30.04,16,6,16,0.00
2013-1-29,80,71,61,73,66,61,99,87,68,30.09,29.87,21,5,21,0.01
2013-1-30,82,73,65,68,65,62,99,79,52,29.96,29.71,24,8,24,0.00
2013-1-31,73,61,48,68,49,32,99,68,24,30.11,29.75,17,6,17,0.15
2013-2-1,72,57,46,46,37,25,95,52,18,30.32,30.11,12,3,12,0.00
2013-2-2,75,58,43,54,48,41,97,72,38,30.38,30.07,11,3,11,0.00
2013-2-3,76,60,47,51,47,38,99,67,33,30.20,29.91,15,4,15,0.00
2013-2-4,75,58,43,52,46,41,99,71,34,30.17,29.92,11,3,11,0.00
2013-2-5,80,61,44,57,50,41,99,71,34,30.12,29.85,14,3,14,0.00
2013-2-6,80,67,55,66,61,55,99,82,53,30.01,29.87,14,4,14,0.00
2013-2-7,80,70,60,70,64,59,99,80,59,29.96,29.60,16,6,16,0.00
2013-2-8,84,70,60,66,62,55,99,78,41,29.91,29.65,12,6,16,0.00
2013-2-9,77,66,54,62,58,53,99,77,54,30.07,29.91,10,4,14,0.01
2013-2-10,77,69,64,62,59,56,87,70,55,30.14,29.97,15,8,20,0.00
2013-2-11,82,72,61,69,63,57,97,74,45,30.10,29.82,11,6,17,0.00
2013-2-12,86,73,62,70,66,62,99,79,48,29.97,29.70,13,6,17,0.00
2013-2-13,86,74,63,71,67,60,99,80,47,29.78,29.55,21,10,26,0.01
2013-2-14,73,63,59,68,62,59,99,95,78,29.86,29.73,8,2,13,1.73
2013-2-15,74,62,56,61,59,55,99,90,61,29.93,29.80,6,2,9,0.06
2013-2-16,72,60,48,58,47,28,99,68,33,30.07,29.83,19,7,26,0.00
2013-2-17,59,47,37,40,24,15,85,44,21,30.36,29.82,12,5,21,0.00
2013-2-18,68,54,36,52,41,24,94,64,32,29.95,29.76,14,4,24,0.00
2013-2-19,79,64,49,60,54,47,99,72,43,29.95,29.64,16,4,24,0.00
2013-2-20,77,65,55,64,59,54,99,83,60,29.80,29.62,8,3,11,0.00
2013-2-21,84,70,59,72,64,59,99,83,56,29.73,29.52,10,4,13,0.00
2013-2-22,80,72,60,74,68,60,99,90,69,29.69,29.53,13,6,18,0.00
2013-2-23,87,75,66,72,68,62,99,82,45,29.61,29.41,17,6,24,0.06
2013-2-24,84,71,67,72,68,66,99,90,57,29.55,29.44,13,6,17,0.01
2013-2-25,85,75,66,76,68,62,99,82,48,29.92,29.50,12,5,16,0.00
2013-2-26,83,75,66,73,70,64,96,84,58,29.89,29.74,21,11,27,0.00
2013-2-27,79,68,60,64,60,52,99,79,49,30.03,29.88,9,5,13,0.01
2013-2-28,76,64,50,55,49,39,98,63,30,30.17,29.89,13,6,18,0.00
2013-3-1,66,57,51,52,44,34,92,66,34,30.15,29.98,13,5,15,0.00
2013-3-2,62,53,44,43,36,26,80,54,29,30.28,30.04,21,8,24,0.01
2013-3-3,58,47,34,39,34,30,88,62,38,30.49,27.30,17,7,28,0.00
2013-3-4,65,50,0,44,34,22,94,61,21,30.66,29.89,10,3,14,0.00
2013-3-5,79,62,45,55,47,39,99,64,26,30.02,29.66,12,6,17,0.00
2013-3-6,71,61,47,61,40,19,97,56,14,29.94,29.62,22,11,26,0.52
2013-3-7,70,54,42,49,42,34,98,67,43,30.20,29.93,8,4,11,0.00
2013-3-8,74,57,42,53,48,41,99,74,34,30.15,30.00,9,3,13,0.01
2013-3-9,74,61,46,57,51,45,99,74,46,30.20,29.81,9,3,13,0.00
2013-3-10,75,64,53,61,56,52,99,75,48,29.96,29.76,16,5,20,0.00
2013-3-11,77,67,56,63,58,54,99,76,50,29.83,29.57,15,6,21,0.00
2013-3-12,74,68,59,70,64,58,99,88,80,29.66,29.48,17,8,22,0.20
2013-3-13,75,57,50,58,51,41,99,82,30,29.82,29.65,8,3,9,0.01
2013-3-14,68,58,48,45,40,34,75,53,36,30.02,29.86,11,6,15,0.00
2013-3-15,70,60,40,49,44,37,99,60,32,30.10,29.87,8,4,13,0.01
2013-3-16,79,62,46,56,49,42,99,68,29,33.01,29.76,11,5,19,0.00
2013-3-17,80,66,50,61,55,50,99,72,44,29.94,29.64,14,6,17,0.00
2013-3-18,79,72,63,68,63,59,95,76,60,29.70,29.45,15,7,23,0.02
2013-3-19,85,72,62,69,64,61,99,81,48,29.66,29.50,8,3,11,0.00
2013-3-20,78,70,62,70,65,57,99,84,64,29.62,29.32,15,5,18,0.00
2013-3-21,74,62,51,58,45,22,99,62,15,29.69,29.45,10,4,17,0.00
2013-3-22,77,61,44,65,53,44,99,80,38,29.83,29.55,12,4,14,0.50
2013-3-23,88,75,65,73,68,64,99,82,46,29.92,29.46,20,7,27,0.01
2013-3-24,87,73,66,73,69,63,99,89,54,29.92,29.62,28,10,34,1.33
2013-3-25,76,68,54,69,50,26,99,62,17,30.08,29.75,19,8,22,0.01
2013-3-26,64,54,44,42,32,22,70,47,21,30.40,30.08,16,7,22,0.00
2013-3-27,67,50,40,44,36,27,85,63,25,30.57,30.39,12,4,14,0.00
2013-3-28,70,62,48,48,42,29,89,51,24,30.55,30.37,10,4,14,0.00
2013-3-29,73,60,45,52,46,35,99,66,29,30.57,30.34,9,3,14,0.00
2013-3-30,76,62,48,55,52,48,99,72,44,30.49,30.25,14,5,19,0.00
2013-3-31,77,66,56,66,58,54,95,76,49,30.37,29.99,14,6,17,0.00
2013-4-1,84,72,63,69,64,59,99,78,46,30.11,29.88,17,6,23,0.00
2013-4-2,83,71,61,67,62,56,99,76,42,30.14,30.01,11,4,13,0.00
2013-4-3,82,74,66,72,67,62,98,81,52,30.11,29.92,15,7,21,0.00
2013-4-4,74,70,66,72,69,65,99,95,89,30.03,29.77,18,8,21,0.39
2013-4-5,78,68,61,71,65,58,99,93,71,29.98,29.69,14,6,16,0.32
2013-4-6,77,66,54,63,59,53,99,79,54,30.15,29.95,12,5,18,0.00
2013-4-7,80,70,60,63,60,56,99,74,48,30.15,30.00,10,4,17,0.00
2013-4-8,82,70,58,71,62,13,99,78,49,30.16,30.01,12,4,15,0.00
2013-4-9,80,72,64,69,65,60,99,79,55,30.15,30.00,16,6,20,0.00
2013-4-10,81,72,61,75,68,61,99,86,65,30.09,29.96,15,7,19,0.00
2013-4-11,82,76,72,73,72,70,96,85,70,30.03,29.81,18,11,24,0.00
2013-4-12,89,80,74,76,72,67,96,78,52,29.95,29.74,44,14,44,0.00
2013-4-13,88,76,70,75,70,66,97,81,55,29.91,29.80,10,4,12,0.00
2013-4-14,85,76,72,76,72,69,98,89,67,29.91,29.72,16,7,22,0.78
2013-4-15,86,78,65,71,68,64,99,73,54,30.03,29.87,8,4,11,0.78
2013-4-16,84,78,69,75,70,68,99,78,62,30.10,29.99,12,6,15,0.00
2013-4-17,83,74,64,74,67,63,99,80,57,30.12,29.98,10,4,14,0.01
2013-4-18,83,77,67,74,70,66,99,80,64,30.04,29.88,14,6,19,0.00
2013-4-19,90,78,69,76,71,66,99,81,47,30.01,29.83,19,8,22,1.15
2013-4-20,78,70,65,75,68,62,99,91,74,30.09,29.92,11,4,13,0.02
2013-4-21,80,71,64,74,68,62,99,90,74,30.09,29.88,12,5,15,0.32
2013-4-22,83,72,67,71,68,64,99,89,63,29.99,29.83,12,4,18,0.11
2013-4-23,81,72,64,73,65,61,99,80,53,30.05,29.88,11,5,15,0.00
2013-4-24,83,71,0,69,63,60,99,76,53,30.08,29.83,11,4,17,0.00
2013-4-25,85,74,63,73,65,61,99,74,48,30.00,29.88,11,4,14,0.00
2013-4-26,85,75,64,71,66,63,99,77,52,30.03,29.92,10,4,14,0.01
2013-4-27,83,74,68,73,68,64,97,81,58,30.03,29.87,13,4,15,0.19
2013-4-28,81,75,67,67,65,63,99,72,59,30.03,29.85,16,7,21,0.20
2013-4-29,83,75,67,72,68,63,97,80,55,29.99,29.80,16,6,21,0.37
2013-4-30,86,75,69,73,70,68,98,86,60,29.93,29.82,14,4,18,0.00
2013-5-1,82,71,67,74,69,66,99,93,68,29.93,29.83,13,2,17,0.61
2013-5-2,78,71,65,72,69,65,99,92,81,29.89,29.67,15,7,20,1.57
2013-5-3,84,74,68,75,69,67,99,84,58,29.76,29.51,14,5,18,0.17
2013-5-4,84,74,68,70,68,66,99,83,57,29.72,29.58,13,6,18,0.00
2013-5-5,80,71,65,69,55,39,99,62,25,29.84,29.67,14,7,17,0.04
2013-5-6,81,70,60,65,56,11,93,66,9,29.93,29.79,58,8,58,0.00
2013-5-7,80,68,56,60,56,54,96,69,43,30.01,29.83,15,6,18,0.00
2013-5-8,83,71,60,66,61,56,99,73,43,30.05,29.88,12,5,19,0.00
2013-5-9,83,74,60,70,65,60,99,76,54,30.04,29.93,10,4,13,0.00
2013-5-10,86,76,67,74,70,66,99,83,59,30.00,29.86,15,6,20,0.00
2013-5-11,89,76,70,74,71,67,98,85,49,29.95,29.81,14,5,18,0.46
2013-5-12,88,77,69,75,72,69,99,86,55,29.88,29.77,12,5,15,0.32
2013-5-13,85,73,67,70,65,56,99,77,50,29.94,29.80,9,4,11,0.01
2013-5-14,81,73,58,63,58,54,99,60,42,30.07,29.95,9,4,17,0.00
2013-5-15,84,72,59,67,61,56,98,70,45,30.08,29.91,12,4,15,0.00
2013-5-16,84,73,63,65,63,59,98,73,47,29.99,29.87,11,4,14,0.00
2013-5-17,86,76,64,71,67,48,99,77,55,30.10,29.84,12,5,17,0.01
2013-5-18,87,77,68,77,72,67,99,84,59,29.94,29.84,13,5,18,0.41
2013-5-19,84,76,71,75,72,68,98,88,63,29.93,29.83,11,5,14,0.11
2013-5-20,87,76,69,77,71,68,99,86,63,30.00,29.83,13,4,13,0.04
2013-5-21,82,74,70,76,72,68,99,93,71,29.96,29.86,12,3,17,1.29
2013-5-22,86,75,68,80,72,68,99,90,67,29.93,29.80,10,3,14,0.38
2013-5-23,89,77,69,76,72,69,99,85,53,29.93,29.85,10,3,15,0.01
2013-5-24,94,80,68,76,70,62,99,76,36,30.02,29.89,10,3,12,0.02
2013-5-25,86,80,72,74,64,59,96,61,41,30.14,30.02,12,6,17,0.00
2013-5-26,82,75,63,70,62,59,98,66,47,30.15,30.07,9,4,15,0.00
2013-5-27,83,78,70,70,67,62,85,69,57,30.12,30.03,14,8,18,0.00
2013-5-28,83,78,74,75,72,69,91,82,74,30.09,29.99,16,10,22,0.01
2013-5-29,81,76,70,76,73,69,99,92,82,30.06,29.96,15,8,21,1.57
2013-5-30,84,78,72,76,73,67,99,84,63,30.03,29.96,19,10,27,0.13
2013-5-31,83,79,76,75,72,70,92,81,72,30.04,29.89,20,11,26,0.02
2013-6-1,86,79,73,77,75,72,99,87,70,29.93,29.82,14,8,20,0.40
2013-6-2,89,79,72,78,75,71,99,88,64,29.97,29.82,14,4,15,0.72
2013-6-3,88,78,72,77,74,72,99,89,60,30.03,29.87,12,4,18,0.92
2013-6-4,86,79,73,76,73,69,99,82,65,30.04,29.96,13,4,17,0.07
2013-6-5,86,81,78,77,74,71,93,80,69,29.98,29.89,12,6,18,0.07
2013-6-6,82,76,72,78,74,71,99,96,86,29.93,29.65,19,10,26,1.64
2013-6-7,89,80,73,76,74,72,99,84,64,29.97,29.77,15,9,17,0.00
2013-6-8,90,78,72,78,74,71,99,88,57,30.11,29.95,13,5,18,0.15
2013-6-9,86,78,71,80,74,70,99,88,61,30.12,30.03,14,5,18,0.01
2013-6-10,88,81,76,79,76,74,98,87,69,30.12,29.79,15,6,20,0.00
2013-6-11,91,79,73,81,75,68,99,89,61,29.95,29.84,9,3,13,0.21
2013-6-12,93,83,76,77,73,70,97,74,57,29.94,29.85,12,6,14,0.00
2013-6-13,92,81,73,76,74,71,98,79,51,29.91,29.73,13,5,24,0.00
2013-6-14,93,83,73,78,73,68,99,76,47,29.99,29.68,15,8,18,0.00
2013-6-15,91,83,76,80,76,75,97,81,63,30.11,30.00,16,7,20,0.02
2013-6-16,88,82,77,77,76,74,95,82,67,30.12,30.03,13,8,17,0.00
2013-6-17,93,84,77,78,76,69,96,79,48,30.09,29.95,11,6,14,0.00
2013-6-18,94,83,74,78,75,70,99,78,48,30.05,29.92,12,7,16,0.02
2013-6-19,92,82,72,77,73,67,96,76,52,30.03,29.94,14,7,21,0.39
2013-6-20,91,79,72,79,74,70,99,85,60,30.10,27.04,9,3,14,1.00
2013-6-21,88,77,70,78,74,70,99,89,69,30.13,30.03,9,2,14,0.14
2013-6-22,90,81,71,83,73,71,99,80,57,30.08,30.00,10,4,14,0.01
2013-6-23,85,80,76,77,75,73,95,84,72,30.08,30.02,10,4,13,0.19
2013-6-24,91,84,75,82,75,72,99,75,62,30.17,30.04,12,7,17,0.19
2013-6-25,90,82,73,78,75,70,99,81,55,30.14,29.99,12,5,17,0.00
2013-6-26,90,79,73,79,76,53,99,92,63,30.06,29.95,13,4,16,0.21
2013-6-27,92,81,72,78,74,70,99,82,52,30.02,29.90,12,4,14,0.02
2013-6-28,92,79,72,76,74,70,99,85,55,29.96,29.78,21,6,27,0.57
2013-6-29,90,78,73,78,75,72,99,89,60,29.99,29.76,12,6,16,0.05
2013-6-30,88,77,73,79,75,72,99,92,65,29.91,29.81,18,6,25,0.14
2013-7-1,88,76,72,78,74,71,99,92,66,30.04,29.89,17,6,25,0.35
2013-7-2,88,76,72,79,75,72,99,95,71,30.11,29.98,13,4,19,0.47
2013-7-3,87,81,74,78,76,73,99,84,72,30.19,30.06,17,9,24,0.00
2013-7-4,86,80,73,77,75,72,99,84,68,30.22,30.10,19,8,24,0.00
2013-7-5,86,81,76,79,76,74,95,84,69,30.21,30.07,19,8,29,0.04
2013-7-6,86,81,76,78,75,73,96,84,67,30.18,30.06,16,7,115,0.01
2013-7-7,87,81,74,77,76,73,99,83,66,30.18,30.08,17,6,18,0.00
2013-7-8,87,82,78,81,76,72,97,82,62,30.23,30.09,12,4,14,0.01
2013-7-9,89,80,73,80,74,71,99,83,58,30.23,30.08,14,4,22,0.01
2013-7-10,87,80,74,77,74,72,99,82,64,30.15,26.73,11,5,15,0.05
2013-7-11,89,80,73,78,75,71,99,86,57,30.12,29.98,16,5,19,1.03
2013-7-12,94,82,73,77,74,69,99,79,47,30.04,29.89,14,4,30,0.02
2013-7-13,88,77,73,77,74,72,99,92,65,29.97,29.88,12,4,14,0.11
2013-7-14,81,74,71,76,73,70,99,95,82,30.03,29.95,14,4,17,0.15
2013-7-15,88,79,70,80,74,70,99,85,64,30.14,30.02,11,5,14,0.01
2013-7-16,88,79,73,77,74,72,99,88,68,30.18,30.05,16,5,20,0.26
2013-7-17,88,79,73,78,75,72,99,87,66,30.17,30.00,13,5,22,0.04
2013-7-18,85,78,74,76,74,72,99,89,67,30.06,29.93,12,4,15,0.02
2013-7-19,88,80,72,79,75,71,99,85,67,30.15,30.00,13,6,18,0.04
2013-7-20,87,78,72,82,75,71,99,92,76,30.06,29.93,16,3,23,0.57
2013-7-21,90,78,71,79,75,69,99,88,64,30.07,29.94,20,6,27,1.24
2013-7-22,92,79,72,79,74,71,99,86,53,30.07,29.98,12,5,17,1.06
2013-7-23,90,80,74,80,75,71,99,84,56,30.05,29.88,14,5,17,0.00
2013-7-24,86,78,73,78,76,72,99,91,72,29.95,29.82,18,6,24,0.26
2013-7-25,85,79,72,79,76,71,99,89,78,29.95,29.84,13,6,17,0.38
2013-7-26,91,81,74,79,76,74,99,86,62,29.97,26.92,13,4,15,0.11
2013-7-27,94,82,73,80,76,72,99,85,50,29.97,29.84,10,3,14,0.07
2013-7-28,92,84,76,79,75,70,99,78,51,30.03,29.91,8,2,11,0.00
2013-7-29,92,84,77,80,77,75,96,79,59,30.08,29.81,12,5,15,0.32
2013-7-30,92,78,0,81,77,75,99,82,59,30.01,29.85,12,3,14,0.00
2013-7-31,89,83,75,83,76,73,99,81,63,29.96,29.83,16,5,17,0.19
2013-8-1,90,83,77,78,76,73,97,80,61,30.03,26.95,11,4,14,0.00
2013-8-2,92,84,74,80,76,73,99,78,56,30.00,29.88,13,3,14,0.11
2013-8-3,89,78,71,79,75,71,99,91,68,30.09,29.95,25,7,34,0.47
2013-8-4,93,82,74,80,77,73,99,84,56,30.05,29.92,14,6,21,0.00
2013-8-5,95,81,74,80,77,73,99,88,52,30.01,29.86,17,5,23,0.59
2013-8-6,92,82,73,80,74,-2,99,82,3,29.93,29.77,9,4,12,0.01
2013-8-7,90,86,78,81,77,73,95,74,59,29.95,29.82,12,7,16,0.01
2013-8-8,89,86,79,78,76,72,94,73,60,30.00,29.83,14,9,18,0.00
2013-8-9,90,83,78,79,75,71,92,78,62,30.13,29.85,14,7,19,0.00
2013-8-10,88,80,74,83,76,72,99,88,66,30.15,29.93,11,2,14,0.00
2013-8-12,87,82,80,77,76,75,90,83,68,30.04,29.93,8,3,11,0.02
2013-8-13,92,83,73,82,76,72,99,81,56,30.04,29.86,10,4,15,0.01
2013-8-14,94,83,76,78,76,74,97,80,53,30.01,29.77,13,6,17,0.00
2013-8-15,91,82,77,78,76,73,99,82,56,30.08,29.85,12,4,15,0.19
2013-8-16,92,83,75,79,76,70,99,81,52,30.12,29.94,11,5,14,0.01
2013-8-17,91,84,78,80,78,76,99,83,64,30.12,29.86,14,6,17,0.00
2013-8-18,88,82,75,80,77,74,99,86,69,30.19,29.94,15,6,20,0.02
2013-8-19,90,85,79,80,77,72,99,78,59,30.08,29.88,14,7,19,0.00
2013-8-20,91,84,75,79,77,72,99,79,58,30.13,29.86,14,6,16,0.02
2013-8-21,90,83,76,80,78,74,99,85,67,30.12,29.94,14,6,18,0.21
2013-8-22,89,82,76,82,78,76,99,88,68,30.11,29.90,12,5,15,0.05
2013-8-23,91,84,76,82,77,73,99,82,62,30.09,29.88,13,5,15,0.01
2013-8-24,94,81,75,81,76,72,99,85,54,30.20,30.01,11,3,15,0.07
2013-8-25,87,78,72,80,76,72,99,92,71,30.22,30.04,9,2,13,0.76
2013-8-26,92,81,74,81,75,73,99,85,57,30.17,29.96,11,3,16,0.09
2013-8-27,88,80,73,76,72,70,99,79,57,30.10,29.92,12,4,17,0.02
2013-8-28,91,81,71,81,73,70,99,79,53,30.12,29.88,9,3,14,0.00
2013-8-29,94,82,73,77,74,70,99,80,49,30.07,29.92,7,3,12,0.01
2013-8-30,94,81,73,80,75,72,99,83,53,30.03,29.88,10,3,14,0.28
2013-8-31,96,80,69,77,73,69,99,82,44,30.10,29.86,25,5,33,0.80
2013-9-1,93,79,72,78,74,71,99,87,51,30.08,29.96,13,4,17,0.12
2013-9-2,95,79,72,79,74,71,99,87,53,30.06,29.96,12,4,14,0.05
2013-9-3,93,79,72,77,75,71,99,89,57,30.11,29.89,8,4,13,0.30
2013-9-4,92,81,74,82,76,71,99,86,55,30.19,29.31,8,2,12,0.01
2013-9-5,94,83,75,83,77,73,99,83,56,30.14,29.97,9,3,14,0.00
2013-9-6,93,83,75,83,77,72,99,84,55,30.11,29.96,11,3,15,0.05
2013-9-7,92,78,74,80,75,73,99,92,57,30.08,30.00,5,2,8,0.00
2013-9-9,91,82,75,76,74,72,99,78,57,29.99,29.85,10,5,14,0.04
2013-9-10,90,81,74,77,74,69,99,79,55,30.03,29.83,11,5,18,0.07
2013-9-11,90,81,74,77,75,71,99,82,59,30.00,29.83,12,4,20,0.00
2013-9-12,90,81,74,78,74,71,99,80,60,29.92,29.77,11,3,15,0.00
2013-9-13,93,82,73,78,74,71,99,79,52,29.95,29.77,10,3,11,0.00
2013-9-14,95,84,75,80,77,71,99,81,49,30.09,29.87,9,4,14,0.11
2013-9-15,90,80,73,81,76,72,99,89,66,30.25,30.02,16,4,21,0.15
2013-9-16,89,79,71,80,74,71,99,85,62,30.16,29.92,13,4,19,0.01
2013-9-17,89,80,73,81,75,72,99,87,65,30.10,29.94,13,4,17,0.21
2013-9-18,88,79,74,78,75,73,99,88,68,30.15,29.91,15,4,22,0.35
2013-9-19,90,81,74,77,74,69,98,79,59,30.16,29.95,12,5,17,0.00
2013-9-20,89,81,70,79,70,67,99,71,51,30.10,29.79,10,4,17,0.01
2013-9-21,90,80,72,75,72,68,97,76,49,29.88,29.68,10,4,13,0.00
2013-9-22,91,81,75,77,74,71,97,80,53,29.85,29.68,14,6,20,0.00
2013-9-23,90,78,73,80,75,72,99,92,61,29.97,29.66,8,3,14,1.68
2013-9-24,86,78,74,79,75,73,99,92,70,29.89,29.72,17,6,17,0.01
2013-9-25,86,78,73,76,73,69,99,85,59,29.79,29.65,16,8,23,0.00
2013-9-26,97,81,74,79,75,69,99,83,44,29.84,29.60,16,8,20,0.00
2013-9-27,89,75,70,76,72,69,99,90,59,29.92,29.69,10,3,12,0.21
2013-9-28,88,77,70,77,71,16,99,83,12,29.94,29.83,11,4,17,0.52
2013-9-29,90,82,72,76,71,68,99,72,52,29.94,29.80,8,4,14,0.00
2013-9-30,90,78,69,77,71,68,99,80,49,30.01,29.74,8,3,13,0.00
2013-10-1,90,80,70,79,73,70,99,79,59,29.99,29.81,10,4,15,0.01
2013-10-2,89,80,71,75,72,68,98,76,55,30.02,29.79,9,3,15,0.00
2013-10-3,89,79,68,80,71,68,99,79,55,30.00,29.75,10,4,15,0.00
2013-10-6,88,80,77,75,74,73,91,83,62,29.86,29.77,10,4,14,0.01
2013-10-7,88,78,73,76,74,72,99,88,59,29.83,29.62,15,7,20,0.00
2013-10-8,90,79,73,78,74,69,99,85,52,29.91,29.64,15,8,21,0.00
2013-10-9,89,77,70,76,72,68,99,85,58,29.98,29.72,9,4,14,0.01
2013-10-10,88,76,67,72,68,65,99,79,51,29.97,29.77,9,4,14,0.00
2013-10-11,91,76,63,72,66,60,99,75,40,30.08,29.88,8,2,13,0.02
2013-10-12,94,77,66,76,67,59,99,74,37,30.15,29.97,9,2,11,0.00
2013-10-13,90,76,64,71,66,57,99,74,36,30.14,30.02,8,2,14,0.01
2013-10-14,89,79,67,74,69,64,99,76,47,30.09,29.91,9,4,14,0.00
2013-10-15,93,75,68,74,70,66,99,86,44,30.03,29.82,6,3,10,0.00
2013-10-16,91,76,67,75,70,64,99,85,42,30.04,29.88,6,2,10,0.00
2013-10-17,92,78,68,79,71,66,99,80,47,30.07,29.84,8,2,11,0.00
2013-10-18,90,78,70,76,72,69,99,83,54,30.08,29.93,9,3,14,0.01
2013-10-19,91,77,71,77,74,70,98,89,54,30.06,29.86,10,3,12,0.00
2013-10-20,93,82,74,77,75,74,99,82,55,30.07,29.89,8,4,12,0.00
2013-10-21,94,80,73,78,76,72,99,86,51,30.03,29.84,10,4,14,0.05
2013-10-22,92,80,75,77,75,72,99,87,54,29.96,29.76,14,6,18,0.01
2013-10-23,87,76,69,74,69,58,99,79,46,30.00,29.75,9,4,16,0.00
2013-10-24,78,69,64,64,58,51,92,70,58,30.16,29.96,8,3,11,0.00
2013-10-25,84,71,60,64,60,56,99,72,41,30.28,30.06,10,4,14,0.01
2013-10-26,86,72,59,64,58,49,97,67,31,30.21,30.04,6,2,11,0.00
2013-10-27,84,73,57,64,60,53,99,66,39,30.15,30.04,7,3,11,0.01
2013-10-28,86,73,61,66,63,59,97,74,48,30.18,30.02,8,3,13,0.00
2013-10-29,86,76,62,71,66,62,99,75,53,30.23,30.11,7,3,12,0.01
2013-10-30,86,76,67,74,68,64,99,77,53,30.25,30.07,11,4,16,0.00
2013-10-31,84,77,69,73,69,65,95,78,56,30.15,29.97,15,5,17,0.05
2013-11-1,89,78,70,76,71,68,99,80,51,30.03,29.82,15,5,19,0.00
2013-11-2,83,72,66,73,67,61,99,85,56,29.99,29.79,17,6,22,0.00
2013-11-3,82,71,59,62,56,45,97,64,31,30.11,29.93,10,5,18,0.00
2013-11-4,82,74,69,68,60,49,96,62,43,30.08,29.91,16,9,23,0.05
2013-11-5,86,76,68,73,69,65,96,80,57,30.05,29.90,15,10,31,0.18
2013-11-6,91,77,70,73,68,64,94,74,48,30.00,29.84,10,4,13,0.00
2013-11-7,86,74,66,76,69,66,99,87,61,29.93,29.77,7,2,11,0.00
2013-11-8,82,72,65,71,67,64,99,83,62,30.04,29.83,12,6,19,0.01
2013-11-9,84,75,66,68,66,64,99,76,54,30.09,29.96,12,6,21,0.00
2013-11-10,87,73,64,75,67,63,99,83,48,30.08,29.95,8,2,11,0.01
2013-11-11,84,73,66,74,68,65,99,84,54,30.03,29.95,9,3,13,0.00
2013-11-12,84,72,65,75,68,65,99,87,60,30.01,29.86,6,2,11,0.01
2013-11-13,71,66,65,66,57,48,94,71,50,30.19,29.93,15,9,107,0.00
2013-11-14,78,70,65,62,56,50,73,60,45,30.18,29.77,14,8,21,0.26
2013-11-15,80,73,68,70,64,57,93,74,53,29.89,29.76,12,4,15,0.00
2013-11-16,82,74,69,73,68,65,98,83,62,29.85,29.74,11,5,14,0.01
2013-11-17,84,77,70,73,72,69,98,84,64,29.83,29.69,12,6,17,0.00
2013-11-18,88,76,69,73,70,68,99,84,54,29.75,29.61,10,3,13,0.00
2013-11-19,86,74,67,72,68,66,99,85,53,29.69,29.52,10,3,11,0.00
2013-11-20,81,72,67,74,70,67,99,94,77,29.85,29.59,13,6,17,1.89
2013-11-21,79,74,71,74,71,70,99,90,77,29.94,29.76,14,6,17,0.59
2013-11-22,84,76,70,72,68,64,90,78,54,29.88,29.78,15,6,20,0.00
2013-11-23,88,74,65,74,67,64,99,80,49,29.86,29.67,9,2,13,0.00
2013-11-24,78,68,65,67,63,55,99,86,62,29.93,29.72,12,7,19,0.07
2013-11-25,75,70,67,63,59,54,77,69,55,29.96,29.85,17,11,24,0.00
2013-11-26,85,75,70,75,70,62,99,83,66,29.89,29.47,17,10,24,0.15
2013-11-27,75,67,47,72,60,44,98,81,51,29.93,29.41,19,10,25,0.11
2013-11-28,74,55,40,58,48,37,97,79,52,30.14,29.93,9,6,14,0.00
2013-11-29,77,63,54,63,58,52,99,84,55,33.15,29.94,8,4,14,0.00
2013-11-30,81,68,60,70,63,59,99,87,54,30.07,29.89,12,4,17,0.12
2013-12-1,70,65,62,69,64,62,99,98,94,29.91,29.73,6,2,8,0.34
2013-12-2,76,65,58,66,61,58,99,89,57,29.73,29.52,8,3,13,0.00
2013-12-3,81,67,58,65,61,57,99,84,49,29.76,29.60,6,2,9,0.01
2013-12-4,89,72,62,70,66,61,99,82,44,29.85,29.67,10,4,13,0.00
2013-12-5,91,73,61,76,68,61,99,85,50,29.88,29.74,11,4,14,0.00
2013-12-6,83,73,67,78,70,67,99,89,66,29.91,29.77,11,3,12,0.13
2013-12-7,87,73,62,76,68,61,99,87,58,29.97,29.87,8,2,10,0.00
2013-12-8,82,73,65,71,68,64,99,86,61,29.98,29.79,13,4,17,0.01
2013-12-9,86,73,65,75,68,65,99,86,55,29.93,29.77,13,4,14,0.00
2013-12-10,87,74,64,73,66,62,99,79,44,29.92,29.74,14,4,18,0.00
2013-12-11,86,73,62,72,68,61,99,85,59,29.94,29.81,7,3,11,0.00
2013-12-12,73,64,54,66,56,48,99,79,43,30.03,29.85,12,4,15,0.00
2013-12-13,78,64,51,63,56,50,99,77,48,30.02,29.83,11,5,17,0.00
2013-12-14,70,70,70,63,63,63,77,77,76,29.88,29.87,10,9,14,0.00
2013-12-15,78,69,63,74,64,59,99,83,65,30.14,29.87,11,6,17,0.53
2013-12-16,74,60,50,60,53,48,98,81,47,30.29,30.13,8,4,11,0.00
2013-12-17,80,62,50,60,55,49,99,81,45,30.35,30.11,7,3,11,0.01
2013-12-18,76,61,51,54,49,39,98,68,32,30.35,30.20,7,3,11,0.00
2013-12-19,79,64,47,60,55,47,99,74,49,30.42,30.20,10,2,16,0.00
2013-12-20,81,68,53,72,61,52,99,80,48,30.28,30.07,13,4,16,0.00
2013-12-21,81,73,65,74,70,64,99,92,78,30.18,30.06,15,6,21,0.00
2013-12-22,87,75,68,75,71,67,99,87,53,30.22,30.06,14,5,21,0.01
2013-12-23,88,76,67,75,70,67,99,84,53,30.21,30.03,13,6,17,0.00
2013-12-24,72,64,54,69,59,39,99,85,41,30.14,29.85,10,5,14,0.02
2013-12-25,79,65,50,60,56,49,99,75,48,30.08,29.90,12,4,17,0.00
2013-12-26,84,67,56,66,62,56,99,85,54,30.03,29.81,6,3,11,0.00
2013-12-27,81,70,65,71,67,64,99,93,68,30.05,29.92,8,4,11,0.00
2013-12-28,78,72,66,72,69,65,99,91,76,29.98,29.79,15,7,19,0.01
2013-12-29,79,74,69,76,72,68,99,95,87,29.83,29.60,14,8,17,0.44
2013-12-30,70,64,57,69,62,56,99,93,80,30.00,29.77,6,3,8,0.00
2013-12-31,71,64,59,60,57,56,94,80,62,30.15,30.00,8,4,15,0.00
2014-1-1,70,66,62,69,64,16,99,96,14,30.10,29.83,7,2,11,0.13
2014-1-2,84,72,65,72,68,65,99,88,58,29.86,29.54,20,8,28,0.26